Location: Madrid
(40.4167°N, 3.7036°W)
Time: 13:09:25
(UTC+00:00)

ISS - Pass Details

Date: 13 July 2024
Orbit: 410 x 424 km, 51.6° (Epoch: 14 July)

Event Time Altitude Azimuth Distance (km) Brightness Sun altitude
Rises 20:08:33 0° 244° (WSW) 2,330 0.5 -4.7°
Reaches altitude 10° 20:10:40 10° 250° (WSW) 1,471 -0.5 -5.0°
Maximum altitude 20:13:53 51° 327° (NNW) 522 -2.8 -5.5°
Drops below altitude 10° 20:17:08 10° 45° (NE) 1,478 -1.1 -6.0°
Sets 20:19:16 0° 51° (NE) 2,343 -0.1 -6.4°
